ATHENA (46275 NORAD) Tracking and Keplerian Element Data

This shows tracking and keplerian element data for the satellite.

Feedback or suggestion? Click here.




ElementValue
Catalog46275
NameATHENA
Epoch Orbit2204
Epoch Day26.61690752
Epoch Year2021
RAAN103.1333
Inclination97.4483
Eccentricity0.0002765
Argument of Perigee105.0263
Mean Anonmoly255.1276
Mean Motion15.16110681
Decay Rate6E-06
L11 46275U 20061D 21026.61690752 .00000600 00000-0 34523-4 0 9997
L22 46275 97.4483 103.1333 0002765 105.0263 255.1276 15.16110681 22048

Live tracking and technical data element details for ATHENA (NORAD 46275). ATHENA can be tracked NOW for your location showing map with azimuth and elevation plus other details from your city location.

Track the satellite on the map from your city or location and see movement details for azimuth, elevation, latitude, longitude, range, height, and movement on the map or in text.







IsCatalogInMostPopularTable: catalog: 46275, numindb: 50
Update: records affected: 1



GetName: 46275 ATHENA

Hit Count: updated at: Thu, 28 Jan 2021 10:47:57 GMT